Weather in Borysivka

Ukraine / Zaporizhia Region     46°47′07″N   36°24′32″E
temp.,
°C
wind,
m/s
gust,
m/s
humid.,
%
clouds,
%
prec.,
mm/h
press.,
hPa
HPBL,
m
13 may, thu
thu1300:00+12s57818 0.1 1013249
03:00+12s22805 0.1 1013154
06:00+11ene22804 0.0 101399
09:00+15se34629 0.0 1013449
12:00+17se3364100 0.0 1013434
15:00+17ese3468100 0.0 1013276
18:00+18e577095 0.0 1012293
21:00+16ene588074 0.0 1012106
14 may, fri
fri1400:00+16e589027 0.0 1010106
03:00+15e48935 0.0 1010125
06:00+15e4696100 0.0 1010103
09:00+17ese3386100 0.0 1010211
12:00+19s227496 0.0 1011257
15:00+19s3366100 0.0 1011212
18:00+19ssw236418 0.1 1011113
21:00+16wsw22610 0.1 101112
15 may, sat
sat1500:00+15wnw337019 0.0 101132
03:00+15nw357661 0.0 101269
06:00+14nw347310 0.0 101359
09:00+19nw22596 0.0 1014265
12:00+20ssw43585 0.0 1014554
15:00+21ssw32566 0.0 1013318
18:00+20sw2257100 0.0 1013104
21:00+17wnw22603 0.0 101211
16 may, sun
sun1600:00+16n44656 0.0 101229
03:00+16nne467429 0.0 101179
06:00+16ne487610 0.0 1010115
09:00+21ene687035 0.0 1010367
12:00+23e67676 0.0 1008706
15:00+23ese676456 0.0 1007730
18:00+22e61065100 0.0 1005310
21:00+19ne47769 0.0 100597
17 may, mon
mon1700:00+18ne467661 0.0 100478
03:00+17ene4890100 0.6 1003123
06:00+16ene6983100 0.1 1003181
09:00+18e677758 1.0 1003286
12:00+19sse558879 0.0 1005316
15:00+18s578767 0.1 1006291
18:00+17sse679061 0.0 1007204
21:00+16s5894100 0.0 1008123